THY2658 LTFM-LTAR

Flight info

Callsign THY2658
Flight time N/A
Altitude 35000
Route VICEN UT380 ASMAP UL333 LATGA UT363 GURBU UL615 OLPOT
Aircraft B738/M-SDE2E3FGHIRWXY/LB1

Departure

Time 2026-02-22 01:18
Airport İstanbul Airport (LTFM)

Arrival

Time N/A
Airport Sivas Nuri Demirağ Airport (LTAR)
Time Latitude Longitude Altitude Speed Heading
2026-02-22 00:55 41.26123 28.74888 333 ft 0 kts 251°
2026-02-22 01:12 41.26123 28.74887 333 ft 0 kts 255°
2026-02-22 01:12 41.26125 28.74885 329 ft 0 kts 280°
2026-02-22 01:12 41.26129 28.74883 330 ft 1 kts 333°
2026-02-22 01:12 41.26133 28.74890 329 ft 1 kts 50°
2026-02-22 01:13 41.26134 28.74902 330 ft 0 kts 85°
2026-02-22 01:13 41.26134 28.74903 330 ft 0 kts 85°
2026-02-22 01:14 41.26134 28.74912 329 ft 3 kts 85°
2026-02-22 01:14 41.26145 28.74956 330 ft 8 kts 56°
2026-02-22 01:15 41.26201 28.74993 333 ft 9 kts 19°
2026-02-22 01:15 41.26243 28.75052 332 ft 9 kts 84°
2026-02-22 01:15 41.26244 28.75137 333 ft 9 kts 89°
2026-02-22 01:15 41.26245 28.75220 333 ft 9 kts 89°
2026-02-22 01:16 41.26246 28.75300 333 ft 9 kts 89°
2026-02-22 01:16 41.26247 28.75378 333 ft 8 kts 89°
2026-02-22 01:16 41.26248 28.75454 333 ft 8 kts 89°
2026-02-22 01:16 41.26249 28.75527 333 ft 8 kts 89°
2026-02-22 01:17 41.26251 28.75599 333 ft 8 kts 83°
2026-02-22 01:17 41.26283 28.75660 329 ft 9 kts 25°
2026-02-22 01:17 41.26349 28.75664 331 ft 10 kts 359°
2026-02-22 01:17 41.26599 28.75660 331 ft 77 kts 359°
2026-02-22 01:18 41.27426 28.75644 331 ft 158 kts 359°
2026-02-22 01:18 41.28649 28.75604 961 ft 173 kts 358°
2026-02-22 01:18 41.29865 28.75590 1738 ft 181 kts
2026-02-22 01:18 41.31129 28.75892 2362 ft 193 kts 28°
2026-02-22 01:19 41.32156 28.77127 2808 ft 215 kts 41°
2026-02-22 01:19 41.33382 28.78451 3121 ft 235 kts 34°
2026-02-22 01:19 41.34782 28.79696 3612 ft 248 kts 30°
2026-02-22 01:19 41.36278 28.80902 4347 ft 254 kts 29°
2026-02-22 01:20 41.37612 28.82452 5251 ft 259 kts 53°
2026-02-22 01:20 41.38330 28.84695 5954 ft 273 kts 79°
2026-02-22 01:20 41.38452 28.87258 6705 ft 281 kts 88°
2026-02-22 01:20 41.38411 28.89883 7508 ft 287 kts 98°
2026-02-22 01:21 41.37675 28.92359 8301 ft 292 kts 126°
2026-02-22 01:21 41.36160 28.94149 9089 ft 295 kts 155°
2026-02-22 01:21 41.34185 28.94827 9869 ft 295 kts 179°
2026-02-22 01:21 41.32113 28.94870 10504 ft 305 kts 182°
2026-02-22 01:22 41.30662 28.94858 10642 ft 322 kts 182°
2026-02-22 01:22 41.27537 28.94856 10901 ft 354 kts 181°
2026-02-22 01:22 41.25000 28.94870 11076 ft 376 kts 182°
2026-02-22 01:22 41.23198 28.94786 11180 ft 389 kts 185°
2026-02-22 01:23 41.20453 28.94526 11567 ft 400 kts 186°
2026-02-22 01:23 41.17657 28.94219 12186 ft 404 kts 186°
2026-02-22 01:23 41.14875 28.93921 12837 ft 407 kts 186°
2026-02-22 01:23 41.12041 28.93638 13455 ft 410 kts 186°
2026-02-22 01:24 41.09183 28.93368 14036 ft 414 kts 186°
2026-02-22 01:24 41.06300 28.93101 14606 ft 417 kts 186°
2026-02-22 01:24 41.03392 28.93284 15117 ft 425 kts 168°
2026-02-22 01:24 41.00630 28.94731 15694 ft 431 kts 150°
2026-02-22 01:25 40.98293 28.97240 16259 ft 435 kts 136°
2026-02-22 01:25 40.96158 29.00093 16769 ft 439 kts 135°
2026-02-22 01:25 40.94013 29.02983 17225 ft 443 kts 135°
2026-02-22 01:25 40.91829 29.05890 17697 ft 446 kts 136°
2026-02-22 01:26 40.89615 29.08789 18174 ft 449 kts 136°
2026-02-22 01:26 40.87377 29.11690 18634 ft 452 kts 136°
2026-02-22 01:26 40.85212 29.14718 19029 ft 457 kts 127°
2026-02-22 01:26 40.83715 29.18431 19450 ft 460 kts 108°
2026-02-22 01:27 40.82913 29.22524 19939 ft 461 kts 102°
2026-02-22 01:27 40.82179 29.26665 20330 ft 465 kts 103°
2026-02-22 01:27 40.81391 29.30827 20691 ft 469 kts 104°
2026-02-22 01:27 40.80564 29.35006 21070 ft 472 kts 104°
2026-02-22 01:28 40.79722 29.39201 21461 ft 474 kts 104°
2026-02-22 01:28 40.78874 29.43421 21820 ft 477 kts 104°
2026-02-22 01:28 40.78022 29.47672 22154 ft 480 kts 104°
2026-02-22 01:28 40.77168 29.51942 22501 ft 482 kts 104°
2026-02-22 01:29 40.76309 29.56228 22835 ft 484 kts 104°
2026-02-22 01:29 40.75444 29.60528 23117 ft 486 kts 105°
2026-02-22 01:29 40.74575 29.64845 23332 ft 488 kts 105°
2026-02-22 01:29 40.73713 29.69135 23549 ft 490 kts 104°
2026-02-22 01:30 40.73165 29.73627 23760 ft 491 kts 92°
2026-02-22 01:30 40.73094 29.78074 23987 ft 492 kts 89°
2026-02-22 01:30 40.73106 29.82651 24196 ft 494 kts 89°
2026-02-22 01:30 40.73107 29.87182 24410 ft 495 kts 90°
2026-02-22 01:31 40.73067 29.91667 24613 ft 497 kts 90°
2026-02-22 01:31 40.72989 29.96228 24806 ft 498 kts 91°
2026-02-22 01:31 40.72894 30.00812 24989 ft 500 kts 91°
2026-02-22 01:31 40.72780 30.05392 25168 ft 502 kts 94°
2026-02-22 01:32 40.72125 30.09911 25293 ft 504 kts 109°
2026-02-22 01:32 40.70915 30.14240 25521 ft 504 kts 111°
2026-02-22 01:32 40.69664 30.18566 25690 ft 505 kts 111°
2026-02-22 01:32 40.68456 30.22923 25839 ft 507 kts 110°
2026-02-22 01:33 40.67285 30.27318 25962 ft 509 kts 109°
2026-02-22 01:33 40.66264 30.31786 26058 ft 511 kts 101°
2026-02-22 01:33 40.65790 30.36428 26217 ft 511 kts 95°
2026-02-22 01:33 40.65486 30.41092 26414 ft 511 kts 94°
2026-02-22 01:34 40.65197 30.45761 26545 ft 512 kts 94°
2026-02-22 01:34 40.64878 30.50377 26678 ft 513 kts 95°
2026-02-22 01:34 40.64513 30.55051 26838 ft 513 kts 96°
2026-02-22 01:34 40.64119 30.59720 27060 ft 512 kts 96°
2026-02-22 01:35 40.63718 30.64378 27294 ft 511 kts 96°
2026-02-22 01:35 40.63317 30.69035 27490 ft 511 kts 96°
2026-02-22 01:35 40.62745 30.73655 27582 ft 513 kts 103°
2026-02-22 01:35 40.61830 30.78200 27655 ft 514 kts 106°
2026-02-22 01:36 40.60826 30.82720 27816 ft 513 kts 107°
2026-02-22 01:36 40.59807 30.87228 27922 ft 514 kts 107°
2026-02-22 01:36 40.58803 30.91733 28118 ft 512 kts 106°
2026-02-22 01:36 40.57823 30.96235 28286 ft 512 kts 106°
2026-02-22 01:37 40.56855 31.00754 28452 ft 512 kts 106°
2026-02-22 01:37 40.55908 31.05210 28616 ft 512 kts 105°
2026-02-22 01:37 40.54949 31.09722 28696 ft 513 kts 105°
2026-02-22 01:38 40.53012 31.18782 28796 ft 515 kts 106°
2026-02-22 01:38 40.52040 31.23295 28996 ft 513 kts 106°
2026-02-22 01:38 40.51066 31.27797 29199 ft 511 kts 106°
2026-02-22 01:38 40.50092 31.32291 29342 ft 512 kts 106°
2026-02-22 01:39 40.49115 31.36794 29413 ft 513 kts 106°
2026-02-22 01:39 40.47151 31.45829 29660 ft 513 kts 106°
2026-02-22 01:39 40.46169 31.50328 29834 ft 512 kts 106°
2026-02-22 01:40 40.45187 31.54824 29961 ft 512 kts 106°
2026-02-22 01:40 40.43229 31.63764 30215 ft 512 kts 106°